Morrisville, VT

7:09 PM EDT on August 29, 2016 (GMT -0400)
Morrisville Stowe State

Weather History for KMVL - October, 2012

Change the Weather History Date:

Tuesday, October 30, 2012

  Actual Average Record
Temperature  
Mean Temperature 60 °F 41 °F  
Max Temperature 66 °F 51 °F 66 °F (2012)
Min Temperature 53 °F 31 °F 21 °F (2002)
Degree Days  
Heating Degree Days 5 24  
Month to date heating degree days 431 574  
Since 1 July heating degree days 717 906  
Cooling Degree Days 0 0  
Month to date cooling degree days 0 0  
Year to date cooling degree days 408 265  
Growing Degree Days 10 (Base 50)    
Moisture  
Dew Point 54 °F    
Average Humidity 75    
Maximum Humidity 93    
Minimum Humidity 56    
Precipitation  
Precipitation 0.77 in 0.09 in 0.77 in (2012)
Month to date precipitation 4.53 3.02  
Year to date precipitation 18.08 30.15  
Sea Level Pressure  
Sea Level Pressure 29.51 in    
Wind  
Wind Speed 6 mph (SE)    
Max Wind Speed 29 mph    
Max Gust Speed 49 mph    
Visibility 8 miles    
Events Rain    
T = Trace of Precipitation, MM = Missing Value Source: NWS Daily Summary

Daily Weather History Graph

Daily Weather History Graph

Search for Another Location

Airport or City:

Trip Planner

Search our weather history database for the weather conditions in past years. The results will help you decide how hot, cold, wet, or windy it might be!

Date:

Astronomy

Oct. 30, 2012 Rise Set
Actual Time 7:25 AM EDT 5:41 PM EDT
Civil Twilight 6:55 AM EDT 6:11 PM EDT
Nautical Twilight 6:21 AM EDT 6:46 PM EDT
Astronomical Twilight 5:47 AM EDT 7:19 PM EDT
Moon 6:05 PM EDT (10/30) 8:12 AM EDT (10/30)
Length of Visible Light 11h 16m
Length of Day
10h 15m
Full, 99% of the Moon is Illuminated
Oct 30
Full
Nov 6
Last Quarter
Nov 13
New
Nov 20
First Quarter
Nov 28
Full

Hourly Weather History & Observations

Time (EDT) Temp. Dew Point Humidity Pressure Visibility Wind Dir Wind Speed Gust Speed Precip Events Conditions
12:39 AM 60.8 °F 53.6 °F 77% 29.42 in 9.0 mi ESE 6.9 mph 48.3 mph 0.07 in Rain Light Rain
12:54 AM 61.0 °F 53.1 °F 75% 29.39 in 9.0 mi East 15.0 mph 33.4 mph 0.07 in Rain Light Rain
1:15 AM 60.8 °F 53.6 °F 77% 29.42 in 10.0 mi East 15.0 mph 35.7 mph 0.01 in Rain Light Rain
1:54 AM 61.0 °F 53.1 °F 75% 29.40 in 10.0 mi East 11.5 mph 33.4 mph 0.01 in Rain Light Rain
2:54 AM 59.0 °F 54.0 °F 83% 29.42 in 10.0 mi East 8.1 mph 19.6 mph 0.07 in Rain Light Rain
3:54 AM 61.0 °F 54.0 °F 78% 29.42 in 10.0 mi ESE 8.1 mph 19.6 mph 0.01 in   Overcast
4:54 AM 61.0 °F 55.0 °F 81% 29.42 in 7.0 mi Variable 5.8 mph - 0.01 in Rain Light Rain
5:54 AM 59.0 °F 55.0 °F 87% 29.44 in 3.0 mi Variable 4.6 mph - 0.07 in Rain Rain
6:54 AM 60.1 °F 54.0 °F 80% 29.46 in 10.0 mi SSE 8.1 mph - 0.01 in   Scattered Clouds
7:54 AM 61.0 °F 55.0 °F 81% 29.49 in 10.0 mi Variable 3.5 mph - 0.00 in   Mostly Cloudy
8:34 AM 60.8 °F 53.6 °F 77% 29.52 in 1.8 mi SSE 11.5 mph 25.3 mph 0.05 in Rain Heavy Rain
8:48 AM 59.0 °F 53.6 °F 82% 29.52 in 3.0 mi SSE 8.1 mph 17.3 mph 0.12 in Rain Light Rain
8:54 AM 59.0 °F 53.1 °F 81% 29.52 in 9.0 mi SE 11.5 mph 17.3 mph 0.12 in Rain Light Rain
9:54 AM 60.1 °F 54.0 °F 80% 29.54 in 9.0 mi SE 6.9 mph 21.9 mph 0.01 in Rain Light Rain
10:54 AM 59.0 °F 55.9 °F 90% 29.55 in 3.0 mi Variable 4.6 mph - 0.06 in Rain Rain
11:03 AM 60.8 °F 55.4 °F 82% 29.55 in 2.5 mi Variable 4.6 mph - 0.02 in Rain Rain
11:11 AM 60.8 °F 55.4 °F 82% 29.55 in 6.0 mi SSE 8.1 mph - 0.02 in Rain Light Rain
11:54 AM 60.1 °F 54.0 °F 80% 29.56 in 4.0 mi SSE 8.1 mph 23.0 mph 0.07 in Rain Rain
12:54 PM 62.1 °F 55.0 °F 78% 29.55 in 10.0 mi Variable 6.9 mph - 0.01 in   Overcast
1:54 PM 64.0 °F 53.1 °F 67% 29.54 in 10.0 mi SSE 10.4 mph 26.5 mph N/A   Mostly Cloudy
2:54 PM 66.0 °F 51.1 °F 59% 29.54 in 10.0 mi SSE 8.1 mph 21.9 mph N/A   Scattered Clouds
3:54 PM 66.0 °F 50.0 °F 56% 29.56 in 10.0 mi SE 11.5 mph 19.6 mph N/A   Mostly Cloudy
4:54 PM 63.0 °F 52.0 °F 67% 29.57 in 10.0 mi SE 8.1 mph - 0.00 in Rain Light Rain
5:54 PM 62.1 °F 52.0 °F 70% 29.57 in 10.0 mi SSE 5.8 mph - 0.00 in   Scattered Clouds
6:54 PM 62.1 °F 51.1 °F 67% 29.57 in 10.0 mi Variable 4.6 mph - N/A   Partly Cloudy
7:54 PM 57.9 °F 53.1 °F 84% 29.56 in 10.0 mi Calm Calm - 0.01 in Rain Light Rain
8:54 PM 59.0 °F 54.0 °F 83% 29.55 in 10.0 mi Calm Calm - 0.04 in Rain Light Rain
9:54 PM 57.0 °F 54.0 °F 89% 29.55 in 5.0 mi Calm Calm - 0.02 in Rain Rain
10:14 PM 57.2 °F 55.4 °F 94% 29.53 in 10.0 mi Variable 3.5 mph - 0.00 in   Overcast
10:54 PM 55.9 °F 54.0 °F 93% 29.54 in 10.0 mi Calm Calm - 0.02 in Rain Light Rain
11:14 PM 55.4 °F 53.6 °F 94% 29.56 in 1.8 mi SSW 11.5 mph - 0.12 in Rain Heavy Rain
11:21 PM 55.4 °F 53.6 °F 94% 29.56 in 1.8 mi SSE 5.8 mph 17.3 mph 0.23 in Rain Heavy Rain
11:26 PM 55.4 °F 53.6 °F 94% 29.55 in 3.0 mi Calm Calm - 0.24 in Rain Rain
11:40 PM 55.4 °F 53.6 °F 94% 29.54 in 10.0 mi Calm Calm - 0.24 in Rain Light Rain
11:54 PM 55.0 °F 53.1 °F 93% 29.54 in 10.0 mi Calm Calm - 0.24 in Rain Light Rain